Location: Unspecified
(0.0000°N, 0.0000°E)
Time: 08:19:11
(UTC+00:00)

Transit 2A Rocket - All Passes

Search period start: 24 September 2023 00:00
Search period end: 04 October 2023 00:00
Orbit: 590 x 906 km, 66.7° (Epoch: 23 September)

Date Brightness Start Highest point End Pass type
(mag) Time Alt. Az. Time Alt. Az. Time Alt. Az.
24 Sep - 00:26:53 10° NNE 00:29:59 19° ENE 00:33:11 10° ESE night (unlit)
24 Sep - 02:09:26 10° WNW 02:12:11 16° WSW 02:15:02 10° SSW night (unlit)
24 Sep - 12:54:01 10° SSW 13:00:03 71° ESE 13:05:49 10° NNE daylight
25 Sep - 01:24:41 10° NW 01:28:42 39° WSW 01:32:57 10° S night (unlit)
25 Sep - 12:11:09 10° S 12:16:35 35° ESE 12:21:49 10° NE daylight
25 Sep - 13:54:43 10° WSW 13:58:51 19° WNW 14:02:53 10° NNW daylight
26 Sep - 00:40:59 10° NNW 00:45:17 81° ENE 00:49:49 10° SSE night (unlit)
26 Sep - 11:29:16 10° SSE 11:33:04 17° ESE 11:36:48 10° ENE daylight
26 Sep - 13:09:53 10° SW 13:15:27 39° WNW 13:20:47 10° N daylight
26 Sep - 23:58:06 10° N 00:01:54 31° ENE 00:05:53 10° SE night (unlit)
27 Sep - 01:43:46 10° WSW 01:44:11 10° WSW 01:44:37 10° WSW night (unlit)
27 Sep - 12:25:59 10° SSW 12:32:03 81° WNW 12:37:48 10° NNE daylight
27 Sep - 23:16:32 10° NE 23:18:32 13° ENE 23:20:33 10° E night (unlit)
28 Sep - 00:57:07 10° NW 01:00:40 25° WSW 01:04:23 10° SSW night (unlit)
28 Sep - 11:42:45 10° S 11:48:37 50° ESE 11:54:10 10° NE daylight
28 Sep - 13:28:20 10° W 13:30:50 13° WNW 13:33:17 10° NW daylight
29 Sep - 00:12:57 10° NNW 00:17:12 61° WSW 00:21:43 10° S night (unlit)
29 Sep - 11:00:15 10° SSE 11:05:06 25° ESE 11:09:47 10° ENE daylight
29 Sep - 12:42:29 10° SW 12:47:25 27° WNW 12:52:10 10° NNW daylight
29 Sep - 23:29:37 10° N 23:33:48 51° ENE 23:38:12 10° SSE night (unlit)
30 Sep - 10:19:25 10° SE 10:21:34 12° ESE 10:23:40 10° E daylight
30 Sep - 11:58:09 10° SSW 12:04:01 55° WNW 12:09:36 10° N daylight
30 Sep - 22:47:10 10° NNE 22:50:26 21° ENE 22:53:48 10° ESE night (unlit)
01 Oct - 00:29:58 10° WNW 00:32:38 16° WSW 00:35:24 10° SSW night (unlit)
01 Oct - 11:14:33 10° SSW 11:20:36 74° ESE 11:26:18 10° NNE daylight
01 Oct - 23:45:08 10° NW 23:49:08 37° WSW 23:53:23 10° S night (unlit)
02 Oct - 10:31:38 10° S 10:37:07 36° ESE 10:42:21 10° NE daylight
02 Oct - 12:15:26 10° WSW 12:19:22 18° WNW 12:23:10 10° NNW daylight
02 Oct - 23:01:23 10° NNW 23:05:42 86° ENE 23:10:17 10° SSE night (unlit)
03 Oct - 09:49:39 10° SSE 09:53:35 18° ESE 09:57:25 10° ENE daylight
03 Oct - 11:30:30 10° SW 11:35:58 37° WNW 11:41:10 10° N daylight
03 Oct - 22:18:25 10° N 22:22:18 33° ENE 22:26:25 10° SE night (unlit)
